TimeEDT,TemperatureF,Dew PointF,Humidity,Sea Level PressureIn,VisibilityMPH,Wind Direction,Wind SpeedMPH,Gust SpeedMPH,PrecipitationIn,Events,Conditions,WindDirDegrees,DateUTC
12:15 AM,35.1,16.7,47,30.12,10.0,NW,5.8,-,N/A,,Clear,320,2013-03-14 04:15:00
12:35 AM,34.7,16.0,46,30.12,10.0,NW,9.2,-,N/A,,Clear,310,2013-03-14 04:35:00
12:55 AM,34.5,14.7,44,30.12,10.0,NW,11.5,18.4,N/A,,Clear,320,2013-03-14 04:55:00
1:15 AM,34.3,13.3,42,30.13,10.0,NW,6.9,26.5,N/A,,Clear,310,2013-03-14 05:15:00
1:35 AM,33.8,13.6,44,30.14,10.0,NW,5.8,-,N/A,,Clear,310,2013-03-14 05:35:00
1:55 AM,33.1,14.5,47,30.15,10.0,Calm,Calm,-,N/A,,Clear,0,2013-03-14 05:55:00
2:15 AM,32.5,14.9,48,30.14,10.0,WNW,8.1,-,N/A,,Clear,300,2013-03-14 06:15:00
2:35 AM,32.5,14.9,48,30.14,10.0,WNW,4.6,-,N/A,,Clear,300,2013-03-14 06:35:00
2:55 AM,32.0,15.3,50,30.15,10.0,WNW,6.9,-,N/A,,Clear,300,2013-03-14 06:55:00
3:15 AM,32.0,14.9,49,30.14,10.0,NW,5.8,-,N/A,,Clear,310,2013-03-14 07:15:00
3:35 AM,32.0,14.9,49,30.14,10.0,WNW,3.5,-,N/A,,Clear,300,2013-03-14 07:35:00
3:55 AM,32.0,14.9,49,30.14,10.0,WNW,5.8,-,N/A,,Clear,300,2013-03-14 07:55:00
4:15 AM,32.0,14.7,49,30.13,10.0,NW,5.8,16.1,N/A,,Clear,320,2013-03-14 08:15:00
4:35 AM,32.0,14.5,49,30.13,10.0,NW,6.9,-,N/A,,Clear,310,2013-03-14 08:35:00
5:15 AM,31.8,14.7,49,30.14,10.0,NW,5.8,-,N/A,,Clear,310,2013-03-14 09:15:00
5:35 AM,31.3,15.1,51,30.14,10.0,WNW,5.8,-,N/A,,Clear,300,2013-03-14 09:35:00
5:55 AM,30.9,15.6,53,30.15,10.0,West,4.6,-,N/A,,Clear,280,2013-03-14 09:55:00
6:15 AM,30.2,15.8,55,30.16,10.0,Calm,Calm,-,N/A,,Clear,0,2013-03-14 10:15:00
6:35 AM,30.4,15.6,54,30.16,10.0,WNW,4.6,-,N/A,,Clear,290,2013-03-14 10:35:00
6:55 AM,30.6,15.1,53,30.17,10.0,WNW,6.9,-,N/A,,Clear,290,2013-03-14 10:55:00
7:15 AM,30.7,14.9,52,30.18,10.0,WNW,5.8,-,N/A,,Clear,300,2013-03-14 11:15:00
7:35 AM,30.9,15.1,52,30.19,10.0,NW,6.9,-,N/A,,Clear,310,2013-03-14 11:35:00
7:55 AM,31.1,15.3,52,30.19,10.0,WNW,5.8,-,N/A,,Clear,290,2013-03-14 11:55:00
8:15 AM,31.8,15.4,51,30.19,10.0,West,4.6,-,N/A,,Clear,280,2013-03-14 12:15:00
8:35 AM,32.5,15.6,50,30.21,10.0,WNW,6.9,-,N/A,,Clear,300,2013-03-14 12:35:00
8:55 AM,33.4,15.4,48,30.21,10.0,WNW,6.9,-,N/A,,Clear,290,2013-03-14 12:55:00
9:15 AM,34.5,15.4,46,30.21,10.0,WNW,6.9,16.1,N/A,,Clear,300,2013-03-14 13:15:00
9:35 AM,35.6,15.6,44,30.21,10.0,WNW,9.2,17.3,N/A,,Clear,300,2013-03-14 13:35:00
9:55 AM,36.0,14.9,42,30.22,10.0,WNW,9.2,19.6,N/A,,Clear,300,2013-03-14 13:55:00
10:15 AM,37.0,15.1,41,30.22,10.0,WNW,11.5,16.1,N/A,,Clear,300,2013-03-14 14:15:00
10:35 AM,37.0,14.7,40,30.22,10.0,NW,8.1,17.3,N/A,,Clear,310,2013-03-14 14:35:00
10:55 AM,38.1,14.7,39,30.22,10.0,NW,9.2,21.9,N/A,,Clear,320,2013-03-14 14:55:00
11:15 AM,39.4,14.2,36,30.22,10.0,WNW,8.1,-,N/A,,Clear,300,2013-03-14 15:15:00
11:35 AM,39.9,14.5,36,30.22,10.0,NW,10.4,17.3,N/A,,Clear,310,2013-03-14 15:35:00
11:55 AM,41.4,16.0,36,30.21,10.0,WNW,10.4,-,N/A,,Clear,290,2013-03-14 15:55:00
12:15 PM,41.7,14.9,34,30.21,10.0,WNW,8.1,-,N/A,,Clear,300,2013-03-14 16:15:00
12:35 PM,42.6,15.3,33,30.20,10.0,West,11.5,17.3,N/A,,Clear,280,2013-03-14 16:35:00
12:55 PM,43.2,14.5,31,30.19,10.0,WNW,5.8,-,N/A,,Clear,290,2013-03-14 16:55:00
1:15 PM,45.0,15.4,31,30.17,10.0,NW,8.1,-,N/A,,Clear,320,2013-03-14 17:15:00
1:35 PM,45.9,14.9,29,30.16,10.0,NW,9.2,-,N/A,,Clear,310,2013-03-14 17:35:00
1:55 PM,46.8,15.1,28,30.16,10.0,NW,8.1,20.7,N/A,,Clear,310,2013-03-14 17:55:00
2:15 PM,47.3,14.4,27,30.15,10.0,WNW,9.2,17.3,N/A,,Clear,290,2013-03-14 18:15:00
2:35 PM,48.2,14.4,26,30.14,10.0,West,9.2,-,N/A,,Clear,280,2013-03-14 18:35:00
2:55 PM,48.7,15.3,26,30.13,10.0,WNW,12.7,24.2,N/A,,Clear,290,2013-03-14 18:55:00
3:15 PM,49.1,14.2,25,30.12,10.0,NW,13.8,20.7,N/A,,Clear,320,2013-03-14 19:15:00
3:35 PM,49.3,12.0,22,30.12,10.0,NW,11.5,21.9,N/A,,Clear,310,2013-03-14 19:35:00
3:55 PM,50.0,14.2,24,30.12,10.0,West,10.4,23.0,N/A,,Clear,280,2013-03-14 19:55:00
4:15 PM,50.0,11.8,22,30.11,10.0,WNW,13.8,23.0,N/A,,Clear,290,2013-03-14 20:15:00
4:35 PM,50.0,12.0,22,30.11,10.0,WNW,12.7,21.9,N/A,,Clear,300,2013-03-14 20:35:00
4:55 PM,50.2,12.6,22,30.10,10.0,NNW,12.7,17.3,N/A,,Clear,330,2013-03-14 20:55:00
5:15 PM,50.2,11.7,21,30.10,10.0,WNW,15.0,23.0,N/A,,Clear,300,2013-03-14 21:15:00
5:55 PM,50.0,12.9,23,30.09,10.0,West,5.8,-,N/A,,Clear,260,2013-03-14 21:55:00
6:15 PM,49.8,10.8,21,30.09,10.0,WNW,10.4,19.6,N/A,,Clear,290,2013-03-14 22:15:00
6:35 PM,48.7,10.9,22,30.09,10.0,NW,5.8,17.3,N/A,,Clear,310,2013-03-14 22:35:00
6:55 PM,47.8,12.0,24,30.10,10.0,West,5.8,-,N/A,,Clear,280,2013-03-14 22:55:00
7:15 PM,46.6,12.4,25,30.10,10.0,West,4.6,-,N/A,,Clear,270,2013-03-14 23:15:00
7:35 PM,45.3,13.3,27,30.11,10.0,WNW,3.5,-,N/A,,Clear,290,2013-03-14 23:35:00
7:55 PM,44.4,13.1,28,30.11,10.0,WNW,3.5,-,N/A,,Clear,300,2013-03-14 23:55:00
8:15 PM,44.1,12.9,28,30.12,10.0,Calm,Calm,-,N/A,,Clear,0,2013-03-15 00:15:00
8:35 PM,43.7,12.2,28,30.12,10.0,Calm,Calm,-,N/A,,Clear,0,2013-03-15 00:35:00
8:55 PM,43.3,12.0,28,30.12,10.0,Calm,Calm,-,N/A,,Clear,0,2013-03-15 00:55:00
9:15 PM,43.0,12.2,29,30.12,10.0,NW,4.6,-,N/A,,Clear,310,2013-03-15 01:15:00
9:55 PM,41.4,12.2,30,30.12,10.0,NW,4.6,-,N/A,,Clear,310,2013-03-15 01:55:00
10:15 PM,41.4,12.2,30,30.12,10.0,West,4.6,-,N/A,,Clear,280,2013-03-15 02:15:00
10:35 PM,40.8,12.0,31,30.12,10.0,NW,4.6,-,N/A,,Clear,320,2013-03-15 02:35:00
10:55 PM,40.5,12.0,31,30.13,10.0,West,4.6,-,N/A,,Clear,280,2013-03-15 02:55:00
11:15 PM,39.7,12.0,32,30.13,10.0,WNW,3.5,-,N/A,,Clear,290,2013-03-15 03:15:00
11:55 PM,39.2,12.2,33,30.14,10.0,Calm,Calm,-,N/A,,Clear,0,2013-03-15 03:55:00